User: anonymous   Login
Location: Cannifist
(18.2333°N, 63.0167°W)
Time: 05:53:14
(UTC+00:00)
Language:

SL-4 R/B - Orbit

View from above orbital plane
View from above orbital plane
View from above satellite
View from above satellite

Ground track
Ground track

The orbit data is extracted from the following two-line orbital elements,

1 39679U 14021B   20156.24414087 -.00000044 +00000-0 +16068-4 0  9990
2 39679 051.6156 168.7210 0171476 259.9831 098.1751 15.06415521337035
Epoch (UTC): 04 June 2020 05:51:33
Eccentricity: 0.0171476
inclination: 51.6156°
perigee height: 428 km
apogee height: 666 km
right ascension of ascending node: 168.7210°
argument of perigee: 259.9831°
revolutions per day: 15.06415521
mean anomaly at epoch: 98.1751°
orbit number at epoch: 33703

The dashed part of the orbit path shows where the satellite is in the earth's shadow,  

DLR